loading
DOY 205 | 2024-07-23T02:06:55Z
Showing default

OPS 4682 (SNAPSHOT), 1314

Orbit data source: Space-Track

OPS 4682 (SNAPSHOT), 1314 is an American payload satellite in LEO that was launched on Sat, 03 Apr 1965 UTC via an Atlas SLV-3 Agena D launch vehicle from the Air Force Western Test Range (AFWTR). Payloads include a variety of satellites, spacecraft, and rockets equipped with specific instruments for various scientific and technological missions. These include communications satellites like Starlink; space stations such as the ISS; scientific satellites like the Hubble; Earth observation satellites from companies like Planet Labs, Umbra, and HawkEye 360; GPS; miniature CubeSats for education and research; and military/defense satellites.

Loading next visibility...
Loading greatness...
OPS 4682 (SNAPSHOT) details
NORAD ID1314
COSPAR ID
1965-027A
Orbit
LEO
Last TLE update17 hours ago
Origin
Flag of USAFSSD/AEC (US)
ManufacturerRCA/East Windsor
BusSNAP 10 Reactor
MotorUnknown
Mass2,386 kg wet, 422 kg dry
Launch date (UTC)
1965-04-03 (59 years ago)
Launch vehicle
Atlas SLV-3 Agena D
Launch site
Air Force Western Test Range (AFWTR)
Object type
Payload
Rocket body
Debris
Radar Cross Section5.9 m², Large (>1 m²)
Predictive object data (real-time)
Latitude48.74428°
Longitude-88.93339°
Altitude1,308.261 km
Speed7.204 km/s
Apparent Right ascension01h 15m 16s
Apparent Declination10° 52' 54"
Sunlit
Object is in daylight
Predictive observer data (real-time)
Local Sidereal Time15:11:42
Azimuth34.487° NE
Elevation-32.476°
Doppler factor1
Orbital elements
Apogee1,313.727 km
Perigee1,269.435 km
Semi-major axis7,669.718 km
Eccentricity0.0028875
Inclination90.2427°
RAAN351.0856°
Arg. of periapsis304.2879°
True anomaly83.25401°
Mean anomaly82.9255°
Mean motion3.23128 °/min
BSTAR-0.000013149
Period111.41 mins
Definitive object data (Epoch: 2024-07-22T09:16:33.402Z)
Latitude27.57787°
Longitude-88.7997°
Altitude1,295.148 km
Speed7.212 km/s
True Right ascension23h 23m 50s
True Declination27° 26' 49"
Sunlit
Object was in daylight at TLE epoch
TLE from 17 hours ago
0 OPS 4682 (SNAPSHOT)
1 01314U 65027A   24204.38649771  .00000004  00000-0 -13149-4 0  9993
2 01314  90.2427 351.0856 0028875 304.2879  82.9255 12.91785517541328
Epoch: 2024-07-22T09:16Z
No data available

OPS 4682 (SNAPSHOT) Visibility forecast

Observer location: 39.9160978°, -105.1181434

OPS 4682 (SNAPSHOT) is not visible in the next 10 days
Span
Click to sort rows by Start time (UTC) header in descending order
Start Az.
Max El. time (UTC)
Max El. Az.
Max El.
End time (UTC)
End Az.